EIN3KM EIDW-EDDM

Flight info

Callsign EIN3KM
Flight time N/A
Altitude 37000
Route ENDEQ1A ENDEQ Q36 ALAVA Z195 MALUD UL975 WAL M16 DOLAS DCT NAVPI DCT DODEN/N0460F330 DCT TABUM DCT BOMBI T104 HAREM/N0434F270 T104 ROKIL ROKIL1B
Aircraft A21N/M-SDE2E3FGHIRWXY/LB1

Departure

Time N/A
Airport Dublin Airport (EIDW)

Arrival

Time 2026-05-04 21:04
Airport Munich Airport (EDDM)
Time Latitude Longitude Altitude Speed Heading
2026-05-04 20:58 48.47096 12.02731 5928 ft 244 kts 111°
2026-05-04 20:58 48.46536 12.05152 5544 ft 242 kts 111°
2026-05-04 20:58 48.45983 12.07532 5175 ft 240 kts 111°
2026-05-04 20:58 48.45433 12.09887 4974 ft 238 kts 111°
2026-05-04 20:59 48.44643 12.12039 4938 ft 235 kts 135°
2026-05-04 20:59 48.43330 12.13310 4935 ft 216 kts 165°
2026-05-04 20:59 48.41869 12.13345 4996 ft 213 kts 194°
2026-05-04 20:59 48.40527 12.12478 5020 ft 213 kts 211°
2026-05-04 21:00 48.39523 12.10850 4997 ft 215 kts 237°
2026-05-04 21:00 48.38945 12.08784 4867 ft 215 kts 251°
2026-05-04 21:00 48.38636 12.06617 4633 ft 207 kts 259°
2026-05-04 21:00 48.38443 12.04539 4365 ft 195 kts 259°
2026-05-04 21:01 48.38265 12.02551 4151 ft 186 kts 262°
2026-05-04 21:01 48.38113 12.00638 3914 ft 184 kts 262°
2026-05-04 21:01 48.37966 11.98734 3671 ft 184 kts 263°
2026-05-04 21:01 48.37820 11.96823 3432 ft 184 kts 263°
2026-05-04 21:02 48.37675 11.94936 3200 ft 173 kts 263°
2026-05-04 21:02 48.37549 11.93281 2967 ft 147 kts 263°
2026-05-04 21:02 48.37436 11.91789 2772 ft 143 kts 264°
2026-05-04 21:02 48.37323 11.90312 2585 ft 142 kts 264°
2026-05-04 21:03 48.37211 11.88853 2414 ft 137 kts 265°
2026-05-04 21:03 48.37107 11.87464 2185 ft 131 kts 265°
2026-05-04 21:03 48.37003 11.86146 2034 ft 122 kts 264°
2026-05-04 21:03 48.36909 11.84902 1862 ft 118 kts 263°
2026-05-04 21:04 48.36807 11.83680 1696 ft 118 kts 262°
2026-05-04 21:04 48.36712 11.82467 1559 ft 118 kts 264°
2026-05-04 21:04 48.36626 11.81292 1469 ft 99 kts 264°
2026-05-04 21:04 48.36571 11.80556 1473 ft 43 kts 264°
2026-05-04 21:05 48.36538 11.80119 1460 ft 43 kts 264°
2026-05-04 21:05 48.36448 11.79693 1465 ft 44 kts 237°
2026-05-04 21:05 48.36366 11.79529 1461 ft 17 kts 232°
2026-05-04 21:05 48.36286 11.79371 1473 ft 20 kts 233°
2026-05-04 21:06 48.36199 11.79189 1465 ft 23 kts 248°
2026-05-04 21:06 48.36173 11.78944 1469 ft 25 kts 264°
2026-05-04 21:06 48.36153 11.78677 1473 ft 27 kts 263°
2026-05-04 21:06 48.36130 11.78387 1472 ft 29 kts 263°
2026-05-04 21:07 48.36107 11.78077 1472 ft 31 kts 263°
2026-05-04 21:07 48.36083 11.77763 1472 ft 23 kts 263°
2026-05-04 21:07 48.36015 11.77664 1466 ft 16 kts 173°
2026-05-04 21:07 48.35896 11.77685 1469 ft 19 kts 173°
2026-05-04 21:08 48.35755 11.77710 1462 ft 21 kts 174°
2026-05-04 21:08 48.35610 11.77717 1466 ft 22 kts 185°
2026-05-04 21:08 48.35492 11.77712 1463 ft 10 kts 173°
2026-05-04 21:08 48.35430 11.77705 1472 ft 6 kts 225°
2026-05-04 21:09 48.35421 11.77670 1472 ft 1 kts 270°
2026-05-04 21:09 48.35421 11.77664 1472 ft 0 kts 265°